This demonstration page uses our WeatherBlox Daily Observations layout. Learn more.

Left ArrowRight Arrow

39.92423, -83.80882

Hourly Observations for April 10, 2021

Temp ( °F °C ) Dew Point ( °F °C ) Humidity (%) Winds ( mph kmh ) Pressure ( in mb ) Visibility ( mi km ) Precip ( " mm )
12:56 am 00:56 Mostly Cloudy 55 12.8 53 11.7 93 93 E 8 13 29.8 1009 10 16.0934 0 0
1:56 am 01:56 Mostly Clear 54 12.2 51 10.6 90 90 ESE 5 7 29.79 1009 10 16.0934 0 0
2:56 am 02:56 Cloudy 57 13.9 51 10.6 81 81 SE 9 15 29.79 1009 10 16.0934 0 0
3:56 am 03:56 Clear 53 11.7 50 10 89 89 ESE 7 11 29.78 1008 10 16.0934 0 0
4:56 am 04:56 Clear 54 12.2 50 10 87 87 SE 7 11 29.77 1008 10 16.0934 0 0
5:56 am 05:56 Clear 57 13.9 49 9.4 74 74 SSE 9 15 29.77 1008 10 16.0934 0 0
6:56 am 06:56 Clear 55 12.8 50 10 83 83 SSE 8 13 29.75 1007 10 16.0934 0 0
7:56 am 07:56 Sunny 59 15 51 10.6 75 75 S 10 17 29.75 1008 10 16.0934 0 0
8:56 am 08:56 Sunny 62 16.7 55 12.8 78 78 S 8 13 29.75 1007 10 16.0934 0 0
9:56 am 09:56 Sunny 65 18.3 56 13.3 73 73 SSE 13 20 29.73 1007 10 16.0934 0 0
10:56 am 10:56 Sunny 68 20 56 13.3 65 65 SSE 10 17 29.7 1006 10 16.0934 0 0
11:56 am 11:56 Sunny 71 21.7 56 13.3 59 59 SSE 15 24 29.67 1005 10 16.0934 0 0
12:56 pm 12:56 Mostly Sunny 73 22.8 56 13.3 55 55 S 14 22 29.66 1004 10 16.0934 0 0
1:56 pm 13:56 Partly Cloudy 72 22.2 56 13.3 57 57 undefined N/A 29.64 1004 10 16.0934 0 0
2:56 pm 14:56 Cloudy with Light Rain 66 18.9 57 13.9 73 73 SSW 9 15 29.62 1003 10 16.0934 0 0
3:56 pm 15:56 Cloudy with Light Rain 62 16.7 62 16.7 100 100 SW 7 11 29.59 1002 10 16.0934 0 0
4:56 pm 16:56 Cloudy with Light Rain 61 16.1 61 16.1 100 100 SSW 10 17 29.56 1001 10 16.0934 0 0
5:03 pm 17:03 Cloudy with Light Rain 61 16 61 16 100 100 SSW 8 13 29.55 1001 6 9.65604 0 0
5:56 pm 17:56 Cloudy with Light Rain 60 15.6 60 15.6 100 100 SSE 5 7 29.53 1000 9 14.48406 0 0
6:16 pm 18:16 Cloudy with Rain 61 16 61 16 100 100 SSE 12 19 29.52 1000 4 6.43736 0 0
6:26 pm 18:26 Cloudy with Rain 61 16 61 16 100 100 SSE 10 17 29.51 999 6 9.65604 0 0
6:56 pm 18:56 Cloudy with Rain 59 15 59 15 100 100 S 9 15 29.51 999 5 8.0467 0 0
7:24 pm 19:24 Cloudy with Light Rain 59 15 59 15 100 100 ESE 7 11 29.48 998 10 16.0934 0 0
7:56 pm 19:56 Cloudy with Light Rain 59 15 59 15 100 100 SE 12 19 29.48 998 6 9.65604 0 0
8:16 pm 20:16 Cloudy with Light Rain 61 16 61 16 100 100 SSE 10 17 29.47 998 10 16.0934 0 0
8:30 pm 20:30 Cloudy 61 16 61 16 100 100 SSE 12 19 29.47 998 10 16.0934 0 0
8:56 pm 20:56 Cloudy 60 15.6 60 15.6 100 100 S 8 13 29.47 998 10 16.0934 0 0
9:03 pm 21:03 Cloudy 61 16 61 16 100 100 S 6 9 29.47 998 10 16.0934 0 0
9:28 pm 21:28 Cloudy 61 16 61 16 100 100 S 7 11 29.47 998 10 16.0934 0 0
9:56 pm 21:56 Cloudy 60 15.6 60 15.6 100 100 SSW 7 11 29.48 998 10 16.0934 0 0
10:25 pm 22:25 Mostly Cloudy 61 16 61 16 100 100 SSW 9 15 29.47 998 10 16.0934 0 0
10:56 pm 22:56 Mostly Cloudy 60 15.6 60 15.6 100 100 SW 9 15 29.49 999 10 16.0934 0 0
11:11 pm 23:11 Cloudy with Light Rain 57 14 57 14 100 100 WSW 10 17 29.5 999 9 14.48406 0 0
11:21 pm 23:21 Cloudy with Light Rain 57 14 57 14 100 100 SSW 9 15 29.51 999 10 16.0934 0 0
11:56 pm 23:56 Cloudy with Light Rain 55 12.8 55 12.8 100 100 SSW 7 11 29.5 999 8 12.87472 0 0

Powered by AerisWeather